Weather History for Ft Riley, KS

Change the Weather History Date:

Friday, June 14, 2013

  Actual Average (KMHK) Record (KMHK)
Temperature  
Mean Temperature 82 °F 73 °F  
Max Temperature 96 °F 85 °F 98 °F (2013)
Min Temperature 67 °F 62 °F 52 °F (2002)
Degree Days  
Heating Degree Days 0 0  
Month to date heating degree days 8  
Since 1 June heating degree days 8  
Since 1 July heating degree days 5312  
Cooling Degree Days 16 9  
Month to date cooling degree days 98  
Year to date cooling degree days 198  
Since 1 June cooling degree days 98  
Growing Degree Days 32 (Base 50)    
Moisture  
Dew Point 69 °F    
Average Humidity 66    
Maximum Humidity 100    
Minimum Humidity 41    
Precipitation  
Precipitation 0.00 in 0.20 in 1.21 in (2012)
Month to date precipitation 2.53  
Year to date precipitation 13.73  
Sea Level Pressure  
Sea Level Pressure 29.87 in    
Wind  
Wind Speed 9 mph (SSE)    
Max Wind Speed 23 mph    
Max Gust Speed 29 mph    
Visibility 10 miles    
Events      
T = Trace of Precipitation, MM = Missing Value Source: NWS Daily Summary

Daily Weather History Graph

Daily Weather History Graph

Search for Another Location

Airport:

Trip Planner

Search our weather history database for the weather conditions in past years. The results will help you decide how hot, cold, wet, or windy it might be!

Date:

Astronomy

Jun. 14, 2013 Rise Set
Actual Time 6:00 AM CDT 8:54 PM CDT
Civil Twilight 5:28 AM CDT 9:26 PM CDT
Nautical Twilight 4:48 AM CDT 10:07 PM CDT
Astronomical Twilight 4:01 AM CDT 10:53 PM CDT
Moon 11:34 AM CDT (6/14) 12:03 AM CDT (6/14)
Length of Visible Light 15h 57m
Length of Day
14h 53m
Waxing Crescent, 30% of the Moon is Illuminated
Jun 14
Waxing Crescent
Jun 16
First Quarter
Jun 23
Full
Jun 29
Last Quarter
Jul 8
New

Hourly Weather History & Observations

Time (CDT) Temp. Heat Index Dew Point Humidity Pressure Visibility Wind Dir Wind Speed Gust Speed Precip Events Conditions
12:58 AM 68.2 °F - 64.9 °F 89% 29.94 in 10.0 mi Variable 2.3 mph - N/A   Clear
1:58 AM 72.3 °F - 64.8 °F 77% 29.95 in 10.0 mi Calm Calm - N/A   Scattered Clouds
2:58 AM 68.4 °F - 66.4 °F 93% 29.95 in 10.0 mi NE 10.4 mph - N/A   Clear
3:58 AM 68.5 °F - 65.5 °F 90% 29.93 in 10.0 mi NE 8.1 mph - N/A   Clear
4:58 AM 67.5 °F - 66.9 °F 98% 29.93 in 10.0 mi NE 5.8 mph - N/A   Clear
5:58 AM 67.1 °F - 67.1 °F 100% 29.94 in 10.0 mi Variable 2.3 mph - N/A   Clear
6:58 AM 70.2 °F - 65.5 °F 85% 29.93 in 7.0 mi ESE 10.4 mph - N/A   Clear
7:58 AM 74.1 °F - 66.4 °F 77% 29.94 in 5.0 mi East 9.2 mph - N/A   Haze
8:58 AM 77.7 °F - 67.3 °F 70% 29.95 in 10.0 mi ESE 10.4 mph 18.4 mph N/A   Clear
9:58 AM 81.0 °F 83.9 °F 68.5 °F 66% 29.92 in 10.0 mi SE 12.7 mph 20.7 mph N/A   Clear
10:58 AM 84.6 °F 89.4 °F 70.7 °F 63% 29.90 in 10.0 mi SSE 9.2 mph 17.3 mph N/A   Clear
11:58 AM 87.3 °F 93.2 °F 71.4 °F 59% 29.88 in 10.0 mi South 16.1 mph - N/A   Clear
12:58 PM 89.8 °F 97.0 °F 72.3 °F 56% 29.87 in 10.0 mi SSE 16.1 mph 23.0 mph N/A   Scattered Clouds
1:58 PM 93.2 °F 101.1 °F 72.1 °F 50% 29.83 in 10.0 mi South 18.4 mph 24.2 mph N/A   Clear
2:58 PM 95.5 °F 103.7 °F 72.0 °F 46% 29.81 in 10.0 mi South 18.4 mph - N/A   Clear
3:58 PM 96.3 °F 102.6 °F 70.0 °F 42% 29.79 in 9.0 mi South 19.6 mph 27.6 mph N/A   Clear
4:58 PM 96.4 °F 103.7 °F 70.5 °F 43% 29.78 in 10.0 mi South 18.4 mph - N/A   Clear
5:58 PM 95.7 °F 100.9 °F 68.4 °F 41% 29.75 in 10.0 mi South 23.0 mph 28.8 mph N/A   Clear
6:58 PM 94.1 °F 100.6 °F 70.2 °F 46% 29.76 in 10.0 mi South 16.1 mph 21.9 mph N/A   Clear
7:58 PM 91.4 °F 97.3 °F 70.2 °F 50% 29.78 in 10.0 mi South 13.8 mph - N/A   Clear
8:58 PM 88.3 °F 92.8 °F 69.3 °F 53% 29.79 in 10.0 mi South 17.3 mph - N/A   Clear
9:58 PM 86.0 °F 90.1 °F 69.1 °F 57% 29.80 in 10.0 mi SSE 20.7 mph - N/A   Clear
10:58 PM 84.0 °F 87.6 °F 68.5 °F 60% 29.85 in 10.0 mi South 10.4 mph - N/A   Mostly Cloudy
11:58 PM 81.3 °F 84.3 °F 68.7 °F 65% 29.85 in 10.0 mi SSE 9.2 mph - N/A   Clear